Torna al catalogo

TOMORROW-S10

AttivoMeteoSSO
NORAD 67398·PAYLOAD·🇺🇸 United States

Lanciato Jan 11, 2026 da Vandenberg Space Force Base

Loading…

Prossimi Passaggi (prossime 24 ore)

TLE

AggiornatoSource: Space-Track

Epoca: Sep 14, 2026, 11:04 UTC

1 67398U 26004AM  26257.46122811  .00003299  00000-0  15545-3 0  9998
2 67398  97.4634 255.6823 0007335  44.4514 315.7309 15.20192060 37328

Traccia TOMORROW-S10 in tempo reale con AllMySat

Download on the App Store